Columbus, OH

12:14 PM EST on December 04, 2016 (GMT -0500)
Port Columbus International

Weather History for KCMH - November, 2011

Change the Weather History Date:

Wednesday, November 16, 2011

  Actual Average Record
Temperature  
Mean Temperature 46 °F 44 °F  
Max Temperature 55 °F 53 °F 72 °F (1953)
Min Temperature 37 °F 36 °F 12 °F (1883)
Degree Days  
Heating Degree Days 19 21  
Month to date heating degree days 223 287  
Since 1 July heating degree days 615 681  
Cooling Degree Days 0 0  
Month to date cooling degree days 0 0  
Year to date cooling degree days 1262 1024  
Moisture  
Dew Point 47 °F    
Average Humidity 77    
Maximum Humidity 100    
Minimum Humidity 53    
Precipitation  
Precipitation 0.19 in 0.11 in 1.82 in (1955)
Month to date precipitation 1.81 1.65  
Year to date precipitation 46.56 34.79  
Snow  
Snow 0.00 in 0.00 in 3.50 in (1920)
Month to date snowfall 0.0 0.3  
Since 1 July snowfall 0.0 0.5  
Since 1 September snowfall 0.0 0.5  
Snow Depth 0.00 in    
Sea Level Pressure  
Sea Level Pressure 29.89 in    
Wind  
Wind Speed 8 mph (NW)    
Max Wind Speed 17 mph    
Max Gust Speed 22 mph    
Visibility 6 miles    
Events Rain    
T = Trace of Precipitation, MM = Missing Value Source: NWS Daily Summary

Daily Weather History Graph

Daily Weather History Graph

Search for Another Location

Airport or City:

Trip Planner

Search our weather history database for the weather conditions in past years. The results will help you decide how hot, cold, wet, or windy it might be!

Date:

Astronomy

Nov. 16, 2011 Rise Set
Actual Time 7:17 AM EST 5:14 PM EST
Civil Twilight 6:48 AM EST 5:43 PM EST
Nautical Twilight 6:15 AM EST 6:16 PM EST
Astronomical Twilight 5:43 AM EST 6:48 PM EST
Moon 10:27 PM EST (11/16) 11:52 AM EST (11/16)
Length of Visible Light 10h 55m
Length of Day
9h 57m
Waning Gibbous, 70% of the Moon is Illuminated
Nov 16
Waning Gibbous
Nov 18
Last Quarter
Nov 25
New
Dec 2
First Quarter
Dec 10
Full

Hourly Weather History & Observations

Time (EST) Temp. Windchill Dew Point Humidity Pressure Visibility Wind Dir Wind Speed Gust Speed Precip Events Conditions
12:21 AM 55.4 °F - 53.6 °F 94% 29.85 in 10.0 mi SSW 8.1 mph - N/A   Overcast
12:51 AM 55.0 °F - 53.1 °F 93% 29.86 in 10.0 mi SSW 4.6 mph - N/A   Overcast
1:35 AM 55.4 °F - 53.6 °F 94% 29.85 in 10.0 mi SSW 5.8 mph - N/A   Overcast
1:51 AM 55.0 °F - 54.0 °F 96% 29.84 in 6.0 mi SW 4.6 mph - 0.00 in Rain Light Rain
2:09 AM 55.4 °F - 53.6 °F 94% 29.84 in 7.0 mi SSW 5.8 mph - 0.00 in   Overcast
2:51 AM 55.0 °F - 53.1 °F 93% 29.84 in 8.0 mi SSW 4.6 mph - 0.00 in   Overcast
3:27 AM 53.6 °F - 53.6 °F 100% 29.84 in 5.0 mi Calm Calm - N/A   Overcast
3:51 AM 54.0 °F - 53.1 °F 97% 29.84 in 5.0 mi SW 3.5 mph - N/A   Overcast
4:23 AM 53.6 °F - 53.6 °F 100% 29.84 in 6.0 mi SSW 4.6 mph - N/A   Overcast
4:51 AM 54.0 °F - 53.1 °F 97% 29.83 in 5.0 mi SSE 4.6 mph - 0.00 in   Overcast
5:39 AM 53.6 °F - 53.6 °F 100% 29.82 in 3.0 mi Calm Calm - N/A   Overcast
5:51 AM 54.0 °F - 53.1 °F 97% 29.83 in 3.0 mi WNW 3.5 mph - N/A   Overcast
6:27 AM 53.6 °F - 53.6 °F 100% 29.83 in 6.0 mi WNW 3.5 mph - N/A   Overcast
6:51 AM 54.0 °F - 53.1 °F 97% 29.84 in 6.0 mi WNW 3.5 mph - N/A   Overcast
7:04 AM 55.4 °F - 53.6 °F 94% 29.84 in 3.0 mi NW 4.6 mph - 0.00 in Rain Light Rain
7:51 AM 54.0 °F - 53.1 °F 97% 29.87 in 2.5 mi WNW 4.6 mph - 0.05 in Rain Rain
8:51 AM 54.0 °F - 53.1 °F 97% 29.88 in 2.5 mi WNW 4.6 mph - 0.09 in Rain Rain
9:12 AM 53.6 °F - 51.8 °F 94% 29.88 in 2.5 mi NW 5.8 mph - 0.02 in Rain Light Rain
9:35 AM 53.6 °F - 51.8 °F 94% 29.88 in 2.5 mi NNW 4.6 mph - 0.02 in Rain Light Rain
9:48 AM 53.6 °F - 51.8 °F 94% 29.88 in 2.5 mi NNW 6.9 mph - 0.03 in Rain Light Rain
9:51 AM 54.0 °F - 52.0 °F 93% 29.88 in 2.5 mi North 8.1 mph - 0.03 in Rain Light Rain
9:54 AM 53.6 °F - 51.8 °F 94% 29.88 in 2.5 mi NNW 8.1 mph - 0.00 in Rain Light Rain
10:39 AM 53.6 °F - 51.8 °F 94% 29.87 in 2.5 mi North 3.5 mph - 0.02 in   Overcast
10:51 AM 53.1 °F - 51.1 °F 93% 29.87 in 2.5 mi Calm Calm - 0.02 in   Overcast
11:05 AM 53.6 °F - 51.8 °F 94% 29.87 in 4.0 mi Calm Calm - N/A   Overcast
11:42 AM 53.6 °F - 51.8 °F 94% 29.87 in 4.0 mi NW 5.8 mph - N/A   Overcast
11:51 AM 54.0 °F - 52.0 °F 93% 29.86 in 4.0 mi NNW 5.8 mph - N/A   Overcast
11:58 AM 53.6 °F - 51.8 °F 94% 29.86 in 4.0 mi NNW 8.1 mph - N/A   Overcast
12:51 PM 53.1 °F - 48.9 °F 86% 29.87 in 5.0 mi NNW 15.0 mph - N/A   Mostly Cloudy
1:36 PM 51.8 °F - 44.6 °F 76% 29.87 in 10.0 mi North 11.5 mph - N/A   Overcast
1:51 PM 51.1 °F - 43.0 °F 74% 29.88 in 10.0 mi NNW 15.0 mph 20.7 mph N/A   Overcast
2:51 PM 50.0 °F - 39.9 °F 68% 29.90 in 10.0 mi North 11.5 mph 18.4 mph N/A   Overcast
3:51 PM 48.9 °F - 39.9 °F 71% 29.92 in 10.0 mi NNW 12.7 mph - N/A   Overcast
4:51 PM 46.9 °F - 33.1 °F 59% 29.94 in 10.0 mi North 10.4 mph 19.6 mph N/A   Mostly Cloudy
5:51 PM 46.0 °F 41.9 °F 33.1 °F 61% 29.99 in 10.0 mi NNW 8.1 mph - N/A   Mostly Cloudy
6:51 PM 45.0 °F 41.2 °F 30.9 °F 58% 30.02 in 10.0 mi NW 6.9 mph - N/A   Mostly Cloudy
7:51 PM 44.1 °F 39.5 °F 28.9 °F 55% 30.03 in 10.0 mi NW 8.1 mph - N/A   Scattered Clouds
8:51 PM 42.1 °F 36.1 °F 28.9 °F 60% 30.04 in 10.0 mi NW 10.4 mph - N/A   Scattered Clouds
9:51 PM 41.0 °F 33.5 °F 26.1 °F 55% 30.05 in 10.0 mi NNW 13.8 mph - N/A   Scattered Clouds
10:51 PM 37.9 °F 31.5 °F 26.1 °F 62% 30.06 in 10.0 mi NNW 9.2 mph - N/A   Partly Cloudy
11:51 PM 37.0 °F 29.8 °F 27.0 °F 67% 30.08 in 10.0 mi NNW 10.4 mph - N/A   Mostly Cloudy